Starlink 32100

operational
NORAD ID: 59686 Int'l Des: 2024-086 Owner: SPXS Country: US Constellation: starlink
LEOCIRCULAR

Über Starlink 32100

Beschreibung wird geladen...

Live-Position

3D-Globus wird geladen...

Nächste Überflüge

Höhenverlauf

Altitude vs Time

uPlot chart will show altitude changes over time

Zweizeiliger Elementsatz

1 59686U 24086E 25257.44053757 .00001120 00000-0 50237-4 0 9995
2 59686 43.0018 317.1445 0001621 270.2218 89.8448 15.27580209 77362
Epoch: 14. Sept. 2025 • Age: 20 hours

Aktueller Status

Höhe 492.5 km
Geschwindigkeit 7.62 km/s
Subsatellitenpunkt -35.95°S, 91.96°E
Startdatum 8. Mai 2024
Alter 1.3 years
Typ internet

Technische Details

Klassifizierung Payload
Masse 730.00 kg
Trockenmasse 700.00 kg
Gesamtmasse 730.00 kg
Länge 0.30 m
Durchmesser 4.10 m
Spannweite 29.00 m
Form Box + pan
Hersteller SPXS
Bus-Typ Starlink V2M
Phasenstatus In Orbit
Besitzer/Staat SPXS/US

Große Konstellationen

Loading constellations...